Location: Unspecified
(43.3830°N, 0.0000°E)
Time: 20:08:03
(UTC+00:00)

ISS - Visible Passes

Search period start: 25 November 2020 00:00
Search period end: 05 December 2020 00:00
Orbit: 418 x 421 km, 51.6° (Epoch: 26 November)

Date Brightness Start Highest point End Pass type
(mag) Time Alt. Az. Time Alt. Az. Time Alt. Az.
25 Nov -2.4 17:56:46 10° W 17:59:49 31° NNW 18:00:57 24° NNE visible
26 Nov -2.9 17:09:02 10° W 17:12:14 41° NNW 17:15:21 11° NE visible
26 Nov -1.2 18:47:06 10° NW 18:48:19 16° NW 18:48:19 16° NW visible
27 Nov -2.0 17:59:17 10° WNW 18:01:59 22° N 18:02:42 20° N visible
28 Nov -2.2 17:11:27 10° WNW 17:14:18 25° NNW 17:17:04 11° NE visible
28 Nov -1.0 18:49:18 10° NW 18:50:01 14° NW 18:50:01 14° NW visible
29 Nov -1.9 18:01:38 10° NW 18:04:11 19° N 18:04:23 19° N visible
30 Nov -1.9 17:13:53 10° NW 17:16:27 20° N 17:18:46 11° NE visible
30 Nov -0.9 18:51:08 10° NW 18:51:43 14° NW 18:51:43 14° NW visible
01 Dec -2.1 18:03:36 10° NW 18:06:07 22° N 18:06:07 22° N visible
02 Dec -2.0 17:16:00 10° NW 17:18:36 20° N 17:20:34 13° NE visible
02 Dec -1.1 18:52:44 10° NW 18:53:32 16° NW 18:53:32 16° NW visible
03 Dec -2.7 18:05:15 10° NW 18:08:02 32° N 18:08:02 32° N visible
04 Dec -2.5 17:17:44 10° NW 17:20:39 26° NNE 17:22:38 16° ENE visible
04 Dec -1.3 18:54:22 10° WNW 18:55:36 21° WNW 18:55:36 21° WNW visible
